Fort Leonard Wood, MO

1:26 PM CDT on April 23, 2018 (GMT -0500)
Waynesville Regional At Forney Field

Weather History for KTBN - February, 2015

Change the Weather History Date:

Friday, February 20, 2015

  Actual Average Record
Temperature  
Mean Temperature 24 °F -  
Max Temperature 32 °F 46 °F 75 °F (2016)
Min Temperature 15 °F 32 °F 15 °F (2015)
Degree Days  
Heating Degree Days 42    
Moisture  
Dew Point 23 °F    
Average Humidity 90    
Maximum Humidity 100    
Minimum Humidity 54    
Precipitation  
Precipitation 0.53 in - - ()
Sea Level Pressure  
Sea Level Pressure 29.95 in    
Wind  
Wind Speed 9 mph (SE)    
Max Wind Speed 16 mph    
Max Gust Speed 24 mph    
Visibility 7 miles    
Events Rain    
Averages and records for this station are not official NWS values.
T = Trace of Precipitation, MM = Missing Value Source: NWS Daily Summary

Daily Weather History Graph

Daily Weather History Graph

Search for Another Location

Airport or City:

Astronomy

Feb. 20, 2015 Rise Set
Actual Time 6:52 AM CST 5:52 PM CST
Civil Twilight 6:25 AM CST 6:19 PM CST
Nautical Twilight 5:55 AM CST 6:50 PM CST
Astronomical Twilight 5:24 AM CST 7:20 PM CST
Moon 7:47 AM CST (2/20) 8:15 PM CST (2/20)
Length of Visible Light 11h 53m
Length of Day
11h 00m
Waxing Crescent, 5% of the Moon is Illuminated
Feb 20
Waxing Crescent
Feb 25
First Quarter
Mar 5
Full
Mar 13
Last Quarter
Mar 20
New

Hourly Weather History & Observations

Time (CST) Temp. Windchill Dew Point Humidity Pressure Visibility Wind Dir Wind Speed Gust Speed Precip Events Conditions
12:58 AM 19.2 °F 9.3 °F 4.8 °F 54% 30.27 in 10.0 mi SE 8.1 mph - N/A   Overcast
1:58 AM 17.6 °F 5.7 °F 4.8 °F 57% 30.25 in 10.0 mi SE 10.4 mph - N/A   Mostly Cloudy
2:58 AM 16.9 °F 5.5 °F 5.7 °F 62% 30.20 in 10.0 mi SSE 9.2 mph - N/A   Clear
3:58 AM 16.5 °F 3.6 °F 6.8 °F 66% 30.19 in 10.0 mi SSE 11.5 mph - N/A   Clear
4:58 AM 15.8 °F 2.1 °F 6.1 °F 66% 30.18 in 10.0 mi SSE 12.7 mph - N/A   Clear
5:58 AM 15.1 °F 1.8 °F 5.7 °F 66% 30.16 in 10.0 mi SSE 11.5 mph - N/A   Clear
6:58 AM 16.5 °F 1.8 °F 7.7 °F 68% 30.16 in 10.0 mi SSE 15.0 mph 20.7 mph N/A   Overcast
7:58 AM 18.3 °F 4.6 °F 9.1 °F 67% 30.16 in 10.0 mi SSE 13.8 mph 19.6 mph N/A   Overcast
8:03 AM 19.4 °F 7.2 °F 8.6 °F 63% 30.10 in 10.0 mi SSE 11.5 mph 19.6 mph N/A   Overcast
8:58 AM 19.2 °F 5.3 °F 12.2 °F 74% 30.15 in 10.0 mi SSE 15.0 mph 21.9 mph N/A   Overcast
9:58 AM 20.5 °F 8.6 °F 12.9 °F 73% 30.14 in 10.0 mi SSE 11.5 mph - N/A   Overcast
10:28 AM 21.2 °F 7.8 °F 14.0 °F 74% 30.06 in 10.0 mi SSE 15.0 mph - N/A   Overcast
10:58 AM 21.9 °F 8.2 °F 14.4 °F 73% 30.11 in 10.0 mi South 16.1 mph 21.9 mph N/A   Overcast
11:58 AM 22.1 °F 11.3 °F 16.0 °F 77% 30.11 in 10.0 mi South 10.4 mph - N/A   Overcast
12:12 PM 23.0 °F 11.1 °F 15.8 °F 74% 30.03 in 10.0 mi SSE 12.7 mph 19.6 mph N/A   Overcast
12:58 PM 23.9 °F 11.7 °F 16.5 °F 73% 30.07 in 10.0 mi SSE 13.8 mph - N/A   Overcast
1:28 PM 24.8 °F 14.6 °F 17.6 °F 74% 29.99 in 10.0 mi SSE 10.4 mph - N/A   Overcast
1:58 PM 24.1 °F 12.0 °F 18.9 °F 80% 30.04 in 10.0 mi SE 13.8 mph - N/A   Overcast
2:23 PM 23.0 °F 11.1 °F 21.2 °F 93% 29.96 in 9.0 mi SSE 12.7 mph - N/A   Overcast
2:24 PM 23.0 °F 10.6 °F 21.2 °F 93% 29.96 in 9.0 mi SSE 13.8 mph - N/A   Light Freezing Drizzle
2:34 PM 23.0 °F 11.7 °F 21.2 °F 93% 29.95 in 10.0 mi SSE 11.5 mph - N/A   Light Freezing Drizzle
2:39 PM 23.0 °F 10.6 °F 21.2 °F 93% 29.95 in 10.0 mi SSE 13.8 mph - N/A   Light Freezing Drizzle
2:40 PM 23.0 °F 10.1 °F 21.2 °F 93% 29.95 in 10.0 mi SSE 15.0 mph - N/A   Overcast
2:58 PM 23.4 °F 12.2 °F 21.9 °F 94% 30.00 in 10.0 mi SE 11.5 mph - 0.00 in   Overcast
3:48 PM 23.0 °F 12.4 °F 21.2 °F 93% 29.92 in 10.0 mi SSE 10.4 mph - N/A   Overcast
3:58 PM 23.9 °F 13.5 °F 21.9 °F 92% 29.98 in 10.0 mi SSE 10.4 mph - N/A   Overcast
4:28 PM 24.8 °F 14.6 °F 23.0 °F 93% 29.91 in 10.0 mi SE 10.4 mph - N/A   Overcast
4:58 PM 24.3 °F 13.3 °F 23.4 °F 96% 29.96 in 10.0 mi SSE 11.5 mph - N/A   Overcast
5:33 PM 24.8 °F 14.0 °F 23.0 °F 93% 29.89 in 10.0 mi SSE 11.5 mph - N/A   Overcast
5:58 PM 23.7 °F 14.0 °F 23.5 °F 99% 29.94 in 8.0 mi SSE 9.2 mph - N/A   Overcast
6:18 PM 23.0 °F 11.7 °F 23.0 °F 100% 29.88 in 7.0 mi SSE 11.5 mph - N/A   Overcast
6:23 PM 23.0 °F 11.7 °F 23.0 °F 100% 29.88 in 7.0 mi SSE 11.5 mph - N/A Rain Light Freezing Rain
6:58 PM 23.9 °F 14.2 °F 23.7 °F 99% 29.93 in 5.0 mi SSE 9.2 mph - 0.00 in Rain Light Freezing Rain
7:58 PM 24.8 °F 14.6 °F 24.4 °F 99% 29.90 in 3.0 mi SSE 10.4 mph - 0.00 in Rain Light Freezing Rain
8:08 PM 24.8 °F 12.9 °F 24.8 °F 100% 29.83 in 9.0 mi SSE 13.8 mph 24.2 mph N/A   Overcast
8:10 PM 24.8 °F 16.1 °F 24.8 °F 100% 29.84 in 10.0 mi SE 8.1 mph 24.2 mph N/A   Overcast
8:40 PM 24.8 °F 16.9 °F 24.8 °F 100% 29.84 in 9.0 mi SSE 6.9 mph - N/A   Overcast
8:41 PM 24.8 °F 16.9 °F 24.8 °F 100% 29.84 in 8.0 mi SSE 6.9 mph - N/A Rain Light Freezing Rain
8:42 PM 24.8 °F 16.1 °F 24.8 °F 100% 29.84 in 7.0 mi SE 8.1 mph - N/A Rain Light Freezing Rain
8:45 PM 26.6 °F 17.5 °F 24.8 °F 93% 29.84 in 6.0 mi SE 9.2 mph - N/A Rain Light Freezing Rain
8:58 PM 26.4 °F 19.8 °F 26.2 °F 99% 29.90 in 4.0 mi Variable 5.8 mph - 0.02 in Rain Light Freezing Rain
9:01 PM 26.6 °F 20.0 °F 26.6 °F 100% 29.85 in 2.5 mi SE 5.8 mph - N/A Rain Light Freezing Rain
9:03 PM 26.6 °F 20.0 °F 26.6 °F 100% 29.85 in 2.5 mi SE 5.8 mph - N/A Rain Light Freezing Rain
9:08 PM 26.6 °F 22.6 °F 26.6 °F 100% 29.86 in 3.0 mi SE 3.5 mph - N/A Rain Light Freezing Rain
9:13 PM 26.6 °F 22.6 °F 26.6 °F 100% 29.86 in 3.0 mi SE 3.5 mph - N/A Rain Light Freezing Rain
9:18 PM 28.4 °F 24.6 °F 26.6 °F 93% 29.85 in 2.5 mi ESE 3.5 mph - N/A Rain Light Freezing Rain
9:23 PM 28.4 °F - 28.4 °F 100% 29.85 in 3.0 mi SE 2.3 mph - N/A Rain Light Freezing Rain
9:48 PM 30.2 °F - 30.2 °F 100% 29.86 in 3.0 mi SE 1.2 mph - N/A Rain Light Freezing Rain
9:49 PM 30.2 °F - 30.2 °F 100% 29.86 in 3.0 mi Calm Calm - N/A Rain Light Freezing Rain
9:53 PM 30.2 °F - 30.2 °F 100% 29.86 in 3.0 mi Calm Calm - N/A   Overcast
9:58 PM 30.0 °F - 29.8 °F 99% 29.91 in 4.0 mi SE 1.2 mph - 0.28 in   Overcast
9:59 PM 30.2 °F - 30.2 °F 100% 29.86 in 4.0 mi SE 2.3 mph - N/A Rain Light Freezing Rain
10:09 PM 32.0 °F 28.7 °F 32.0 °F 100% 29.86 in 5.0 mi SE 3.5 mph - N/A Rain Light Freezing Rain
10:12 PM 32.0 °F - 32.0 °F 100% 29.86 in 5.0 mi SE 1.2 mph - N/A Rain Light Freezing Rain
10:27 PM 32.0 °F - 32.0 °F 100% 29.86 in 3.0 mi SE 2.3 mph - N/A Rain Light Freezing Rain
10:32 PM 32.0 °F - 32.0 °F 100% 29.86 in 3.0 mi SE 2.3 mph - N/A Rain Light Freezing Rain
10:42 PM 32.0 °F 28.7 °F 32.0 °F 100% 29.85 in 5.0 mi SE 3.5 mph - N/A Rain Light Freezing Rain
10:45 PM 32.0 °F 27.5 °F 32.0 °F 100% 29.85 in 5.0 mi SE 4.6 mph - N/A Rain Light Freezing Rain
10:47 PM 32.0 °F 28.7 °F 32.0 °F 100% 29.85 in 4.0 mi SE 3.5 mph - N/A Rain Light Freezing Rain
10:52 PM 32.0 °F 27.5 °F 32.0 °F 100% 29.84 in 4.0 mi SE 4.6 mph - N/A Rain Light Freezing Rain
10:53 PM 32.0 °F 28.7 °F 32.0 °F 100% 29.84 in 4.0 mi SE 3.5 mph - N/A Rain Light Freezing Rain
10:58 PM 31.6 °F 28.3 °F 31.6 °F 100% 29.90 in 4.0 mi SE 3.5 mph - 0.18 in Rain Light Freezing Rain
11:16 PM 32.0 °F - 32.0 °F 100% 29.84 in 5.0 mi SE 2.3 mph - N/A Rain Light Freezing Rain
11:24 PM 32.0 °F - 32.0 °F 100% 29.84 in 6.0 mi Calm Calm - N/A Rain Light Freezing Rain
11:29 PM 32.0 °F - 32.0 °F 100% 29.84 in 8.0 mi Calm Calm - N/A Rain Light Freezing Rain
11:44 PM 32.0 °F - 32.0 °F 100% 29.84 in 7.0 mi Calm Calm - N/A Rain Light Freezing Rain
11:58 PM 31.1 °F - 31.1 °F 100% 29.88 in 8.0 mi Calm Calm - 0.05 in Rain Light Freezing Rain